EW1617 Weather Reports


Display with metric or nautical units.
time (UTC)temp
F
wind
direction
speed
MPH
gust
MPH
rain 1hr
in
rain 24hr
in
rain mn
in
humidity
%
barometer
mb
20260503194006 85 162 4.0 8.0 0.00 0.00 0.00 45 1010.2
20260503193507 85 108 3.0 6.0 0.00 0.00 0.00 46 1010.2
20260503193008 84 135 3.0 8.0 0.00 0.00 0.00 48 1010.2
20260503192507 83 234 6.0 6.0 0.00 0.00 0.00 48 1010.4
20260503192007 83 171 5.0 8.0 0.00 0.00 0.00 48 1010.5
20260503191507 82 171 4.0 5.0 0.00 0.00 0.00 49 1010.5
20260503191007 81 346 2.0 4.0 0.00 0.00 0.00 52 1010.5
20260503190507 80 99 2.0 4.0 0.00 0.00 0.00 51 1010.7
20260503190006 80 18 5.0 8.0 0.00 0.00 0.00 52 1010.8
20260503185507 79 207 2.0 4.0 0.00 0.00 0.00 54 1010.8
20260503185007 78 90 3.0 6.0 0.00 0.00 0.00 55 1010.8
20260503184507 78 262 5.0 5.0 0.00 0.00 0.00 56 1011.0
20260503184007 77 306 3.0 6.0 0.00 0.00 0.00 58 1011.2
20260503183507 76 243 1.0 5.0 0.00 0.00 0.00 59 1011.2
20260503183007 76 225 1.0 5.0 0.00 0.00 0.00 59 1011.2
20260503182507 75 270 3.0 7.0 0.00 0.00 0.00 60 1011.2
20260503182007 75 308 0.0 1.0 0.00 0.00 0.00 61 1011.2
20260503181507 74 272 3.0 6.0 0.00 0.00 0.00 62 1011.5
20260503181008 74 279 4.0 6.0 0.00 0.00 0.00 62 1011.5
20260503180508 73 365 0.0 1.0 0.00 0.00 0.00 65 1011.5
20260503180007 73 227 4.0 6.0 0.00 0.00 0.00 67 1011.5
20260503175507 72 248 5.0 9.0 0.00 0.00 0.00 68 1011.5
20260503175007 72 54 3.0 5.0 0.00 0.00 0.00 74 1011.5
20260503174506 71 252 1.0 5.0 0.00 0.00 0.00 75 1011.6
20260503174007 71 225 1.0 4.0 0.00 0.00 0.00 77 1011.9
20260503173508 70 225 0.0 0.0 0.00 0.00 0.00 75 1011.9
20260503173007 70 280 6.0 7.0 0.00 0.00 0.00 76 1011.9
20260503172507 70 307 3.0 5.0 0.00 0.00 0.00 83 1011.9
20260503172007 69 234 2.0 7.0 0.00 0.00 0.00 84 1011.9
20260503171507 69 234 1.0 4.0 0.00 0.00 0.00 87 1011.9
20260503171006 68 306 3.0 5.0 0.00 0.00 0.00 89 1011.9
20260503170507 68 248 1.0 1.0 0.00 0.00 0.00 90 1011.9
20260503151007 56 0 0.0 0.0 0.00 0.00 0.00 99 1012.5
20260503150507 56 0 0.0 0.0 0.00 0.00 0.00 99 1012.5
20260503131007 51 0 0.0 0.0 0.00 0.00 0.00 99 1012.2
20260503130507 51 0 0.0 0.0 0.00 0.00 0.00 99 1012.2
20260503110507 54 0 0.0 0.0 0.00 0.00 0.00 99 1012.4
20260503090507 55 0 0.0 0.0 0.00 0.00 0.00 99 1012.5
20260503081508 56 0 0.0 0.0 0.00 0.00 0.00 99 1012.5
20260503081006 56 0 0.0 0.0 0.00 0.00 0.00 99 1012.5
20260503080507 56 0 0.0 0.0 0.00 0.00 0.00 99 1012.5
20260503072507 57 0 0.0 0.0 0.00 0.00 0.00 98 1012.5
20260503072007 57 0 0.0 0.0 0.00 0.00 0.00 98 1012.5
20260503071507 57 0 0.0 0.0 0.00 0.00 0.00 98 1012.5
20260503071007 57 0 0.0 0.0 0.00 0.00 0.00 98 1012.5
20260503070507 57 0 0.0 0.0 0.00 0.00 0.00 98 1012.5
20260503055007 60 0 0.0 0.0 0.00 0.00 0.00 96 1012.3
20260503054507 60 0 0.0 0.0 0.00 0.00 0.00 96 1012.2
20260503054007 61 0 0.0 0.0 0.00 0.00 0.00 96 1012.2
20260503053507 61 0 0.0 0.0 0.00 0.00 0.00 96 1012.2
20260503053008 61 0 0.0 0.0 0.00 0.00 0.00 95 1012.2
20260503052507 61 0 0.0 1.0 0.00 0.00 0.00 95 1012.2
20260503052007 61 0 0.0 0.0 0.00 0.00 0.00 95 1012.2
20260503051507 61 0 0.0 0.0 0.00 0.00 0.00 95 1012.3
20260503051006 61 0 0.0 0.0 0.00 0.00 0.00 95 1012.5
20260503050507 61 0 0.0 1.0 0.00 0.00 0.00 95 1012.5
20260503050007 62 108 1.0 3.0 0.00 0.00 0.00 95 1012.7
20260503045507 62 135 0.0 0.0 0.00 0.00 0.00 95 1012.8
20260503045007 62 135 0.0 0.0 0.00 0.00 0.00 95 1012.7
20260503044506 62 135 0.0 0.0 0.00 0.00 0.00 94 1012.9
20260503044007 62 99 1.0 3.0 0.00 0.00 0.00 94 1012.7
20260503043507 62 90 0.0 0.0 0.00 0.00 0.00 94 1012.5
20260503043007 63 90 0.0 0.0 0.00 0.00 0.00 94 1012.5
20260503042508 63 90 0.0 0.0 0.00 0.00 0.00 94 1012.5
20260503042007 63 90 0.0 0.0 0.00 0.00 0.00 94 1012.5
20260503041507 63 90 0.0 0.0 0.00 0.00 0.00 94 1012.5
20260503041007 63 90 0.0 1.0 0.00 0.00 0.00 94 1012.5
20260503040507 63 90 0.0 1.0 0.00 0.00 0.00 93 1012.5
20260503040007 64 90 0.0 0.0 0.00 0.00 0.00 93 1012.5
20260503035506 64 90 0.0 0.0 0.00 0.00 0.00 93 1012.5
20260503035007 64 90 0.0 0.0 0.00 0.00 0.00 93 1012.5
20260503034507 64 90 0.0 0.0 0.00 0.00 0.00 93 1012.4
20260503034007 65 90 1.0 4.0 0.00 0.00 0.00 93 1012.3
20260503033507 65 90 0.0 0.0 0.00 0.00 0.00 92 1012.2
20260503033007 65 90 0.0 0.0 0.00 0.00 0.00 92 1012.2
20260503032507 65 90 0.0 0.0 0.00 0.00 0.00 92 1012.2
20260503032007 65 90 0.0 0.0 0.00 0.00 0.00 92 1012.2
20260503031507 65 90 2.0 5.0 0.00 0.00 0.00 91 1012.2
20260503031007 65 180 3.0 7.0 0.00 0.00 0.00 91 1012.1
20260503030507 66 144 5.0 7.0 0.00 0.00 0.00 91 1011.9
20260503030007 66 153 6.0 9.0 0.00 0.00 0.00 90 1012.2
20260503025507 66 171 7.0 9.0 0.00 0.00 0.00 90 1012.2
20260503025007 66 144 8.0 9.0 0.00 0.00 0.00 89 1012.2
20260503024507 67 135 8.0 11.0 0.00 0.00 0.00 87 1012.2
20260503024007 67 180 7.0 9.0 0.00 0.00 0.00 86 1012.2
20260503023506 67 144 8.0 10.0 0.00 0.00 0.00 84 1012.2
20260503023007 68 135 8.0 9.0 0.00 0.00 0.00 81 1012.2
20260503022508 69 99 8.0 9.0 0.00 0.00 0.00 79 1012.2
20260503022007 70 153 10.0 11.0 0.00 0.00 0.00 75 1011.9
20260503021506 70 117 8.0 9.0 0.00 0.00 0.00 73 1011.9
20260503021007 71 135 7.0 9.0 0.00 0.00 0.00 71 1011.9
20260503020507 71 108 8.0 9.0 0.00 0.00 0.00 71 1011.6
20260503020007 71 144 8.0 10.0 0.00 0.00 0.00 68 1011.4
20260503015506 72 113 8.0 9.0 0.00 0.00 0.00 65 1011.2
20260503015007 73 146 7.0 8.0 0.00 0.00 0.00 63 1011.2
20260503014507 74 144 2.0 5.0 0.00 0.00 0.00 63 1010.9
20260503014007 74 180 0.0 1.0 0.00 0.00 0.00 64 1011.0
20260503013507 74 180 1.0 4.0 0.00 0.00 0.00 62 1011.0
20260503013007 74 99 1.0 3.0 0.00 0.00 0.00 59 1010.9
20260503012506 74 63 1.0 4.0 0.00 0.00 0.00 61 1011.0
20260503012007 74 108 2.0 5.0 0.00 0.00 0.00 60 1010.8
20260503011507 75 171 3.0 5.0 0.00 0.00 0.00 59 1010.8
20260503011007 75 158 2.0 4.0 0.00 0.00 0.00 59 1010.8
20260503010507 75 0 0.0 5.0 0.00 0.00 0.00 58 1010.8
20260503010007 75 72 6.0 7.0 0.00 0.00 0.00 56 1010.8
20260503005507 76 198 2.0 3.0 0.00 0.00 0.00 56 1010.8
20260503005008 76 181 3.0 6.0 0.00 0.00 0.00 56 1010.8
20260503004506 76 306 1.0 4.0 0.00 0.00 0.00 55 1010.9
20260503004007 77 307 5.0 9.0 0.00 0.00 0.00 54 1011.2
20260503003507 78 198 5.0 8.0 0.00 0.00 0.00 53 1011.0
20260503003006 78 306 2.0 6.0 0.00 0.00 0.00 52 1010.8
20260503002507 78 153 4.0 6.0 0.00 0.00 0.00 52 1010.8
20260503002007 78 153 5.0 7.0 0.00 0.00 0.00 53 1010.9
20260503001507 78 90 1.0 5.0 0.00 0.00 0.00 54 1011.1
20260503001007 77 135 5.0 8.0 0.00 0.00 0.00 53 1011.2
20260503000507 77 99 5.0 8.0 0.00 0.00 0.00 55 1011.2
20260503000007 76 117 4.0 7.0 0.00 0.00 0.00 56 1011.2
20260502235507 76 63 1.0 3.0 0.00 0.00 0.00 56 1011.2
20260502235006 76 253 6.0 8.0 0.00 0.00 0.00 55 1011.2
20260502234507 76 90 1.0 2.0 0.00 0.00 0.00 56 1011.3
20260502234007 76 189 5.0 7.0 0.00 0.00 0.00 55 1011.5
20260502233507 75 99 4.0 6.0 0.00 0.00 0.00 57 1011.5
20260502233007 75 171 6.0 7.0 0.00 0.00 0.00 55 1011.6
20260502232507 75 171 5.0 7.0 0.00 0.00 0.00 55 1011.7
20260502232008 75 253 6.0 7.0 0.00 0.00 0.00 55 1011.8
20260502231507 75 144 4.0 6.0 0.00 0.00 0.00 57 1011.9
20260502231007 75 171 5.0 7.0 0.00 0.00 0.00 56 1011.9
20260502230507 75 153 5.0 5.0 0.00 0.00 0.00 57 1011.9
20260502230007 75 225 5.0 7.0 0.00 0.00 0.00 56 1011.9
20260502225507 75 72 5.0 7.0 0.00 0.00 0.00 57 1012.2
20260502225006 74 254 4.0 7.0 0.00 0.00 0.00 58 1012.2
20260502224507 74 209 5.0 7.0 0.00 0.00 0.00 56 1012.2
20260502224007 75 270 3.0 5.0 0.00 0.00 0.00 55 1012.3
20260502223507 75 108 2.0 5.0 0.00 0.00 0.00 56 1012.5
20260502223007 75 279 2.0 5.0 0.00 0.00 0.00 55 1012.5
20260502222507 75 261 4.0 7.0 0.00 0.00 0.00 57 1012.5
20260502222007 75 99 5.0 7.0 0.00 0.00 0.00 57 1012.5
20260502221507 74 225 6.0 8.0 0.00 0.00 0.00 58 1012.8
20260502221007 73 162 3.0 5.0 0.00 0.00 0.00 61 1012.9
20260502220507 72 162 3.0 5.0 0.00 0.00 0.00 60 1012.9
20260502220007 72 108 3.0 7.0 0.00 0.00 0.00 61 1012.9
20260502215507 73 153 6.0 8.0 0.00 0.00 0.00 57 1013.0
20260502215007 73 198 4.0 8.0 0.00 0.00 0.00 58 1013.2
20260502214506 73 261 4.0 8.0 0.00 0.00 0.00 60 1013.2
20260502214008 72 271 6.0 7.0 0.00 0.00 0.00 60 1013.2
20260502213506 73 270 5.0 6.0 0.00 0.00 0.00 59 1013.2
20260502213007 73 180 5.0 7.0 0.00 0.00 0.00 59 1013.3
20260502212507 72 191 6.0 7.0 0.00 0.00 0.00 61 1013.6
20260502212007 71 207 5.0 7.0 0.00 0.00 0.00 61 1013.6
20260502211506 71 181 6.0 9.0 0.00 0.00 0.00 61 1013.6
20260502211007 71 271 6.0 10.0 0.00 0.00 0.00 62 1013.7
20260502210507 71 198 5.0 6.0 0.00 0.00 0.00 64 1013.8
20260502210007 70 117 3.0 6.0 0.00 0.00 0.00 64 1013.9
20260502205507 70 117 5.0 8.0 0.00 0.00 0.00 67 1014.1
20260502205007 69 153 6.0 7.0 0.00 0.00 0.00 67 1014.2
20260502204506 69 36 5.0 5.0 0.00 0.00 0.00 68 1014.2
20260502204007 69 126 5.0 7.0 0.00 0.00 0.00 67 1014.3
20260502203507 69 216 6.0 7.0 0.00 0.00 0.00 66 1014.5
20260502203007 68 180 6.0 7.0 0.00 0.00 0.00 68 1014.6
20260502202507 67 90 5.0 6.0 0.00 0.00 0.00 72 1014.5
20260502202008 66 270 3.0 7.0 0.00 0.00 0.00 75 1014.6
20260502201507 65 189 3.0 7.0 0.00 0.00 0.00 77 1014.7
20260502201007 65 270 4.0 6.0 0.00 0.00 0.00 76 1014.8
20260502200506 65 200 3.0 5.0 0.00 0.00 0.00 75 1014.6
20260502200007 66 90 2.0 6.0 0.00 0.00 0.00 75 1014.9
20260502195507 66 126 5.0 8.0 0.00 0.00 0.00 73 1014.9
20260502195007 66 308 5.0 7.0 0.00 0.00 0.00 75 1014.9
20260502194506 65 189 5.0 7.0 0.00 0.00 0.00 74 1014.9